Location: Berlin
(42.3812°N, 71.6370°W)
Time: 23:33:58
(UTC+00:00)

SKYMED 2 - Pass Details

Date: 15 November 2025
Orbit: 621 x 623 km, 97.9° (Epoch: 09 December)

Event Time Altitude Azimuth Distance (km) Brightness Sun altitude
Rises 10:13:12 0° 175° (S) 2,890 7.2 -15.7°
Reaches altitude 10° 10:15:25 10° 179° (S) 1,988 6.3 -15.3°
Maximum altitude 10:19:41 59° 259° (W) 720 3.6 -14.5°
Drops below altitude 10° 10:23:59 10° 340° (NNW) 2,002 5.9 -13.7°
Sets 10:26:13 0° 344° (NNW) 2,913 6.7 -13.3°
